EST,Max TemperatureF,Mean TemperatureF,Min TemperatureF,Max Dew PointF,MeanDew PointF,Min DewpointF,Max Humidity, Mean Humidity, Min Humidity, Max Sea Level PressureIn, Mean Sea Level PressureIn, Min Sea Level PressureIn, Max VisibilityMiles, Mean VisibilityMiles, Min VisibilityMiles, Max Wind SpeedMPH, Mean Wind SpeedMPH, Max Gust SpeedMPH,PrecipitationIn, CloudCover, Events, WindDirDegrees
2012-1-1,53,43,32,43,29,13,79,56,33,30.21,29.96,29.70,10,10,6,29,16,41,T,5,Rain,268
2012-1-2,32,25,18,19,15,6,84,67,49,30.37,30.20,30.12,10,6,0,22,12,38,T,7,Snow,299
2012-1-3,27,20,12,11,9,7,73,60,46,30.49,30.38,30.22,10,10,10,14,7,20,0.00,0,,265
2012-1-4,42,34,26,27,19,10,70,58,45,30.21,30.08,29.99,10,10,10,20,10,24,0.00,1,,241
2012-1-7,52,40,28,42,29,24,85,61,36,30.22,30.02,29.80,10,10,10,14,4,22,0.00,0,,294
2012-1-8,47,36,24,27,24,20,92,65,37,30.35,30.28,30.21,10,10,10,12,4,15,0.00,2,,63
2012-1-9,51,38,24,26,23,18,85,56,27,30.24,30.16,30.09,10,10,10,12,3,14,0.00,2,,250
2012-1-10,57,43,28,28,26,22,78,55,32,30.11,30.01,29.84,10,10,10,13,3,16,0.00,0,,233
2012-1-11,45,43,40,43,39,27,100,75,49,29.80,29.53,29.42,10,5,2,14,6,17,0.36,8,Rain,80
2012-1-12,43,29,15,41,22,8,96,79,62,29.75,29.59,29.48,9,3,0,23,13,33,0.01,8,Fog-Snow,270
2012-1-13,19,17,15,13,10,5,80,71,62,30.14,29.92,29.72,10,6,1,21,10,29,T,8,Snow,259
2012-1-14,27,18,9,21,15,7,88,73,57,30.28,30.14,30.05,10,7,1,9,3,13,T,6,Snow,335
2012-1-15,35,21,6,22,15,3,92,74,56,30.46,30.36,30.21,10,9,2,14,6,18,0.00,1,,156
2012-1-16,57,43,29,52,41,22,89,71,53,30.18,29.96,29.82,10,8,2,24,14,32,T,6,Rain,198
2012-1-17,58,42,26,54,44,18,93,84,75,30.22,29.78,29.62,10,7,1,29,15,43,1.23,8,Rain-Thunderstorm,254
2012-1-18,32,27,21,18,15,12,77,63,49,30.33,30.22,30.05,10,10,10,13,5,18,0.00,4,,238
2012-1-19,35,25,15,24,19,8,75,69,63,30.16,30.02,29.92,10,10,10,17,9,22,0.00,4,,281
2012-1-20,29,22,14,27,17,6,92,75,58,30.18,30.00,29.85,10,7,2,14,9,18,0.22,6,Rain,67
2012-1-21,29,25,21,25,21,18,92,87,81,30.20,30.10,29.88,10,7,2,16,10,20,T,8,Rain,52
2012-1-22,55,40,24,54,34,23,100,94,88,30.16,29.94,29.62,8,2,0,21,10,28,T,8,Fog,141
2012-1-23,57,47,36,55,42,28,93,79,64,30.02,29.71,29.54,10,8,1,26,12,38,0.59,7,Rain-Thunderstorm,230
2012-1-24,36,33,30,27,25,23,85,77,69,30.37,30.22,30.03,10,10,8,13,4,17,0.00,7,,282
2012-1-25,34,30,26,33,27,23,96,84,72,30.35,30.23,30.06,10,7,3,13,6,16,0.02,5,Rain,86
2012-1-26,42,38,34,41,37,33,100,96,92,30.00,29.77,29.58,10,3,0,16,6,20,0.54,8,Fog-Rain,116
2012-1-27,39,35,31,34,31,28,100,85,70,30.05,29.86,29.63,10,5,2,15,5,21,0.03,7,Snow,283
2012-1-28,38,34,30,32,25,17,100,72,44,30.29,30.09,29.92,10,7,1,23,10,38,0.02,4,Snow,251
2012-1-29,42,32,22,22,19,15,92,66,39,30.29,30.21,30.14,10,10,10,25,10,37,0.00,1,,252
2012-1-30,58,40,21,31,25,18,92,63,33,30.28,30.16,30.06,10,10,10,23,11,32,0.00,3,,193
2012-1-31,57,53,49,52,40,26,93,66,38,30.09,30.03,29.98,10,9,2,23,14,33,0.12,7,Rain,216
2012-2-1,63,53,43,52,46,35,100,68,36,30.11,30.05,29.98,10,7,0,18,5,29,0.08,3,Fog-Rain,259
2012-2-2,55,42,29,39,34,28,100,73,45,30.38,30.26,30.12,10,4,0,7,1,9,0.00,2,Fog,346
2012-2-3,55,42,28,37,32,26,92,69,45,30.43,30.35,30.24,10,8,4,13,5,15,T,2,Rain,97
2012-2-4,47,44,40,41,39,35,100,83,65,30.23,30.10,30.03,10,4,1,16,8,22,0.15,8,Rain,79
2012-2-5,49,38,26,40,32,22,100,70,39,30.27,30.19,30.09,10,8,4,12,5,18,0.00,4,,38
2012-2-7,43,33,22,31,26,21,100,79,57,30.29,30.23,30.18,10,6,0,14,4,16,0.00,5,Fog,38
2012-2-8,37,34,30,31,29,26,89,80,70,30.35,30.30,30.25,10,7,2,10,4,15,T,8,Snow,328
2012-2-9,31,30,29,27,23,19,85,74,63,30.37,30.30,30.22,10,10,9,10,3,14,0.00,8,,274
2012-2-10,35,32,28,32,28,22,96,83,69,30.20,30.01,29.93,10,5,1,14,6,22,0.02,8,Snow,235
2012-2-11,28,22,15,21,11,5,85,69,52,30.42,30.26,30.02,10,8,2,17,9,25,T,6,Snow,309
2012-2-12,34,25,16,17,11,4,67,59,50,30.43,30.38,30.31,10,10,10,15,8,21,0.00,0,,278
2012-2-13,35,25,15,27,15,10,84,61,38,30.31,30.14,29.95,10,9,1,16,5,21,0.01,5,Snow,192
2012-2-14,35,32,29,31,29,27,92,87,82,30.11,29.93,29.85,10,6,1,12,6,15,T,8,Snow,217
2012-2-15,43,37,30,43,36,28,96,83,70,30.18,30.10,30.02,10,6,2,15,7,21,0.04,7,Rain,149
2012-2-16,47,38,29,45,39,26,96,81,65,30.20,30.05,29.94,10,5,1,16,6,23,T,6,Rain,260
2012-2-17,51,38,24,34,26,21,100,67,33,30.24,30.18,30.10,10,4,0,10,3,15,0.00,0,Fog,236
2012-2-18,48,38,28,30,26,21,78,60,42,30.14,30.11,30.06,10,10,8,14,7,21,0.00,0,,1
2012-2-19,41,31,21,21,20,17,81,61,41,30.21,30.10,30.04,10,10,10,17,8,22,0.00,0,,40
2012-2-20,47,32,17,24,20,14,84,58,31,30.32,30.20,30.00,10,10,6,16,8,22,0.00,0,,124
2012-2-21,47,42,37,39,35,24,82,68,54,29.98,29.83,29.73,10,9,3,23,12,32,0.10,6,Rain,222
2012-2-22,58,44,30,36,32,27,92,64,35,29.83,29.59,29.44,10,10,10,22,9,32,T,3,Rain,232
2012-2-23,59,46,32,40,36,29,89,66,43,29.57,29.44,29.31,10,10,10,18,5,25,T,4,Rain,116
2012-2-24,48,40,31,40,30,19,83,71,59,30.03,29.70,29.37,10,9,2,28,14,39,T,7,Snow,278
2012-2-25,36,28,20,22,17,13,74,59,43,30.37,30.22,30.04,10,8,1,22,7,31,T,5,Snow,290
2012-2-26,54,36,17,21,18,14,84,55,26,30.38,30.26,30.15,10,10,10,18,8,24,0.00,0,,165
2012-2-27,53,40,26,27,22,17,63,45,26,30.47,30.33,30.18,10,10,10,22,7,25,0.00,0,,275
2012-2-28,59,42,24,40,27,19,81,56,31,30.46,30.26,29.91,10,10,10,13,7,17,T,4,Rain,122
2012-2-29,68,58,47,59,44,24,90,58,25,29.82,29.69,29.57,10,9,4,38,16,58,0.07,4,Rain-Thunderstorm,231
2012-3-1,54,43,32,31,29,27,75,58,41,29.91,29.83,29.77,10,10,10,20,6,30,0.00,0,,265
2012-3-2,69,51,33,59,42,28,93,77,61,29.74,29.50,29.27,10,10,3,30,11,45,0.06,5,Rain-Thunderstorm,213
2012-3-3,43,35,26,29,25,19,82,63,43,29.91,29.83,29.72,10,10,10,21,10,28,0.00,5,,274
2012-3-4,42,34,26,30,24,17,92,64,36,29.92,29.89,29.87,10,7,1,18,7,25,0.02,7,Snow,280
2012-3-5,38,31,23,30,23,18,100,74,47,30.43,30.20,29.88,10,9,1,14,7,21,T,4,Snow,301
2012-3-7,68,62,55,48,37,23,56,40,24,30.24,30.14,30.02,10,10,9,33,19,45,0.00,3,,200
2012-3-8,65,49,32,56,45,25,93,75,56,30.33,30.07,29.94,10,8,1,29,11,43,0.51,6,Rain-Thunderstorm,263
2012-3-9,48,38,28,27,20,13,75,50,25,30.52,30.44,30.35,10,10,10,16,7,24,0.00,0,,318
2012-3-10,56,40,24,24,20,16,74,50,26,30.53,30.45,30.34,10,10,10,13,6,17,0.00,0,,138
2012-3-11,67,49,30,43,31,24,78,53,28,30.37,30.27,30.13,10,10,10,22,7,32,T,1,Rain,163
2012-3-12,71,62,53,59,55,43,90,76,61,30.13,29.99,29.88,10,10,6,24,14,36,0.03,6,Rain,190
2012-3-13,76,63,50,57,53,47,93,66,38,30.12,30.06,29.97,10,10,4,16,5,24,0.00,0,,242
2012-3-14,80,62,44,58,52,43,93,68,42,30.15,30.10,30.04,10,10,10,16,6,22,0.00,0,,202
2012-3-15,79,69,58,61,58,53,90,69,48,30.13,30.08,30.02,10,10,10,31,10,41,0.04,3,Rain-Thunderstorm,209
2012-3-16,75,64,52,57,54,51,100,75,49,30.14,30.10,30.07,10,10,10,14,5,20,T,2,,169
2012-3-17,78,62,46,60,54,46,100,78,56,30.15,30.11,30.04,10,5,0,12,5,17,T,3,Fog-Thunderstorm,162
2012-3-18,80,70,59,61,58,57,93,69,45,30.14,30.07,30.02,10,10,9,18,8,25,T,2,Rain,197
2012-3-20,84,71,58,56,54,50,78,58,37,30.09,30.04,29.99,10,10,10,17,5,24,0.00,0,,154
2012-3-22,81,69,57,63,57,51,87,65,42,30.11,30.07,30.01,10,10,2,31,4,41,0.14,3,Rain,159
2012-3-23,73,64,55,61,58,54,97,79,61,30.03,29.90,29.76,10,9,2,21,6,24,0.86,7,Rain-Thunderstorm,129
2012-3-24,65,56,46,54,49,43,100,80,48,29.88,29.83,29.79,10,8,0,12,5,14,0.06,5,Fog-Rain,222
2012-3-25,69,61,52,55,53,51,100,82,63,30.05,29.96,29.88,10,8,4,14,5,20,0.00,6,,353
2012-3-26,63,54,44,52,38,30,96,64,32,30.26,30.18,30.05,10,10,9,17,9,22,0.00,2,,48
2012-3-27,70,54,38,42,32,25,64,46,27,30.26,30.15,29.98,10,10,10,15,8,20,0.00,0,,140
2012-3-28,77,64,51,56,46,33,73,47,21,29.97,29.93,29.90,10,10,10,20,9,25,T,2,Thunderstorm,269
2012-3-29,69,58,46,45,39,35,76,55,34,30.08,30.00,29.94,10,10,10,14,6,17,T,2,Rain,84
2012-3-30,81,66,51,61,50,42,78,59,39,29.93,29.79,29.66,10,10,10,25,11,37,0.01,4,Rain-Thunderstorm,182
2012-3-31,66,58,49,54,47,44,93,71,48,29.91,29.87,29.80,10,8,4,13,6,16,0.00,4,,28
2012-4-1,79,64,48,62,52,44,96,75,54,29.89,29.78,29.65,10,6,1,24,7,31,0.51,4,Rain-Thunderstorm,169
2012-4-2,68,62,55,60,51,45,97,73,48,29.90,29.81,29.66,10,9,5,16,9,21,0.01,3,,109
2012-4-3,84,69,53,60,51,41,66,53,40,29.92,29.85,29.78,10,10,10,14,6,18,0.00,0,,188
2012-4-4,68,62,55,59,54,42,90,74,57,29.82,29.79,29.76,10,8,3,15,7,18,0.01,6,Rain-Thunderstorm,42
2012-4-5,61,53,44,43,35,30,92,64,36,30.01,29.87,29.77,10,9,2,20,12,28,0.69,3,Rain,66
2012-4-6,61,48,35,35,31,28,79,56,32,30.21,30.16,30.03,10,10,10,16,8,22,0.00,0,,55
2012-4-7,67,50,32,43,31,26,82,52,22,30.30,30.23,30.16,10,10,10,10,3,14,0.00,1,,131
2012-4-8,66,56,45,46,34,20,77,48,19,30.27,30.19,30.15,10,10,10,21,7,33,T,2,Rain,325
2012-4-9,67,55,43,36,26,18,58,37,16,30.14,30.03,29.96,10,10,10,23,10,32,0.00,0,,282
2012-4-10,54,44,34,29,23,15,59,41,22,30.10,30.05,29.99,10,10,10,21,7,33,0.00,0,,315
2012-4-11,55,41,27,29,25,22,85,59,32,30.26,30.21,30.13,10,10,10,16,5,22,0.00,1,,11
2012-4-14,67,59,50,59,52,38,100,76,51,30.10,30.03,29.91,10,5,1,18,7,25,1.45,7,Rain-Thunderstorm,176
2012-4-15,79,72,64,57,56,52,73,60,47,29.96,29.88,29.79,10,10,9,26,15,38,0.00,1,,196
2012-4-16,73,61,48,62,52,43,97,75,52,30.23,29.94,29.73,10,9,4,30,12,43,0.38,5,Rain,233
2012-4-17,66,53,40,47,43,39,100,71,42,30.37,30.29,30.25,10,8,2,10,2,15,0.00,0,,24
2012-4-18,71,54,37,45,40,36,100,66,31,30.27,30.17,30.05,10,9,2,10,2,13,0.00,0,,36
2012-4-19,76,59,42,48,42,40,100,64,27,30.06,29.98,29.85,10,10,9,15,5,20,T,0,Rain,172
2012-4-20,73,58,43,53,47,41,93,70,47,29.89,29.81,29.75,10,9,2,21,9,31,0.19,5,Rain,273
2012-4-21,54,47,40,41,39,37,96,78,59,29.98,29.94,29.89,10,9,2,16,6,22,0.00,6,,6
2012-4-22,57,48,38,40,34,28,100,68,35,29.97,29.92,29.89,10,9,4,22,8,26,0.00,5,,22
2012-4-24,64,50,35,47,34,26,83,55,27,29.84,29.78,29.74,10,10,10,15,6,21,T,4,Rain,271
2012-4-25,73,60,47,61,53,46,100,77,53,29.75,29.69,29.63,10,8,2,16,7,21,0.15,2,Rain-Thunderstorm,132
2012-4-26,75,59,43,59,50,29,90,68,46,30.05,29.78,29.56,10,10,7,22,12,29,0.00,0,,331
2012-4-27,63,50,36,30,25,21,64,43,21,30.22,30.13,30.03,10,10,10,16,9,22,T,0,Rain,69
2012-4-28,63,56,48,50,45,30,100,71,41,30.13,30.02,29.96,10,8,2,26,11,33,0.49,7,Rain-Thunderstorm,96
2012-4-29,68,57,46,56,48,40,93,78,63,30.17,30.10,30.04,10,9,5,14,8,17,0.00,4,Rain,97
2012-4-30,81,69,57,64,61,54,93,73,52,30.04,29.96,29.89,10,8,1,22,7,26,0.29,5,Rain-Thunderstorm,239
2012-5-1,79,69,59,70,63,57,100,90,79,30.03,29.96,29.84,10,6,0,26,6,44,0.86,6,Fog-Rain-Thunderstorm,189
2012-5-2,87,78,69,66,63,60,78,60,42,30.00,29.94,29.88,10,10,5,22,11,31,0.00,1,,217
2012-5-3,86,74,62,64,61,57,93,68,42,30.06,29.99,29.94,10,10,8,22,10,29,0.00,0,,201
2012-5-4,80,72,64,68,65,60,93,78,62,30.03,29.94,29.87,10,9,5,17,7,24,0.09,6,Rain-Thunderstorm,209
2012-5-5,86,74,62,67,64,62,100,74,48,29.97,29.91,29.87,10,6,0,9,2,14,0.00,3,Fog-Rain-Thunderstorm,144
2012-5-6,86,75,63,68,64,61,93,72,51,30.00,29.94,29.86,10,8,2,13,6,16,0.00,0,,136
2012-5-7,83,74,64,67,64,60,100,77,54,29.86,29.82,29.75,10,8,1,25,4,35,0.90,5,Rain-Thunderstorm,165
2012-5-8,74,65,55,64,56,44,97,68,38,29.91,29.86,29.81,10,8,5,15,5,20,T,4,Rain,314
2012-5-9,68,58,48,49,46,41,93,68,42,29.92,29.89,29.84,10,10,6,22,6,30,0.02,3,Rain,307
2012-5-10,70,56,41,46,41,37,96,64,31,30.04,29.98,29.92,10,10,7,13,3,18,0.00,1,,347
2012-5-11,75,59,42,52,44,39,96,64,31,30.17,30.13,30.05,10,10,9,9,3,13,0.00,0,,163
2012-5-12,73,62,51,54,49,43,96,65,33,30.24,30.19,30.16,10,10,10,8,2,10,0.00,1,,144
2012-5-14,79,69,59,57,55,51,90,70,42,30.08,30.03,29.97,10,10,10,13,7,20,0.00,5,,46
